Date String (YYYY-MM-DD hh:mm:ss) UTC,Instrument flags,Ambient pressure (hPa),Sample flow (lpm),Bypass flow (lpm),Sample temperature (°C),Ambient temperature (°C),ASC tube jacket temperature (°C),LED temperature (°C),Box temperature (°C),Sample RH (%),Span deviation,Mass concentration (μg/m³),Mass concentration (μg/m³),Mass concentration (μg/m³)
DateTimeUTC,F1_M11,P_M11,Q1_M11,Q2_M11,T1_M11,T2_M11,T3_M11,T4_M11,T5_M11,U1_M11,ZSPAN_M11,X0_M11,X2_M11,X1_M11
2022-05-10 05:00:00,,0822.3,5.01,0.00,29.8,29.1,00.0,38.8,31.6,12.6,0000.0,0019.10,0005.28,0001.92
2022-05-10 05:01:00,,0822.2,5.00,0.00,29.8,29.1,00.0,38.8,31.6,12.8,0000.0,0018.66,0005.26,0001.92
2022-05-10 05:02:00,,0822.2,4.99,0.00,29.8,29.1,00.0,38.8,31.6,12.8,0000.0,0017.70,0005.24,0001.91
2022-05-10 05:03:00,,0822.2,5.00,0.00,29.8,29.1,00.0,38.8,31.6,12.9,0000.0,0017.55,0005.17,0001.91
2022-05-10 05:04:00,,0822.2,5.00,0.00,29.8,29.1,00.0,38.8,31.6,12.6,0000.0,0017.48,0005.14,0001.91
2022-05-10 05:05:00,,0822.2,5.00,0.00,29.8,29.1,00.0,38.8,31.6,12.8,0000.0,0017.44,0005.17,0001.90
2022-05-10 05:06:00,,0822.2,5.01,0.00,29.8,29.1,00.0,38.8,31.6,12.8,0000.0,0017.55,0005.21,0001.88
2022-05-10 05:07:00,,0822.2,5.01,0.00,29.8,29.1,00.0,38.8,31.6,12.8,0000.0,0017.42,0005.20,0001.91
2022-05-10 05:08:00,,0822.2,5.00,0.00,29.8,29.1,00.0,38.8,31.6,12.7,0000.0,0017.64,0005.22,0001.93
2022-05-10 05:09:00,,0822.2,4.99,0.00,29.9,29.1,00.0,38.8,31.6,12.9,0000.0,0016.90,0005.23,0001.94
2022-05-10 05:10:00,,0822.2,5.00,0.00,29.9,29.1,00.0,38.8,31.6,12.7,0000.0,0016.53,0005.16,0001.92
2022-05-10 05:11:00,,0822.2,4.99,0.00,29.9,29.1,00.0,38.8,31.6,12.7,0000.0,0016.55,0005.19,0001.92
2022-05-10 05:12:00,,0822.2,5.00,0.00,29.9,29.1,00.0,38.8,31.6,12.7,0000.0,0016.91,0005.20,0001.92
2022-05-10 05:13:00,,0822.3,5.00,0.00,29.9,29.2,00.0,38.8,31.7,12.6,0000.0,0016.87,0005.20,0001.94
2022-05-10 05:14:00,,0822.3,4.99,0.00,29.9,29.1,00.0,38.8,31.6,12.6,0000.0,0016.81,0005.20,0001.94
2022-05-10 05:15:00,,0822.3,5.00,0.00,29.9,29.1,00.0,38.8,31.7,12.6,0000.0,0017.61,0005.31,0001.96
2022-05-10 05:16:00,,0822.2,5.00,0.00,29.9,29.2,00.0,38.8,31.7,12.6,0000.0,0017.72,0005.32,0001.99
2022-05-10 05:17:00,,0822.2,5.00,0.00,29.9,29.2,00.0,38.8,31.7,12.6,0000.0,0018.35,0005.31,0002.03
2022-05-10 05:18:00,,0822.1,5.01,0.00,29.9,29.1,00.0,38.8,31.6,12.7,0000.0,0018.70,0005.28,0002.01
2022-05-10 05:19:00,,0822.1,5.00,0.00,29.9,29.1,00.0,38.8,31.6,12.6,0000.0,0018.27,0005.24,0001.99
2022-05-10 05:20:00,,0822.2,5.00,0.00,29.9,29.1,00.0,38.8,31.6,12.8,0000.0,0018.24,0005.30,0001.97
2022-05-10 05:21:00,,0822.3,5.01,0.00,29.9,29.1,00.0,38.8,31.7,12.7,0000.0,0017.62,0005.23,0001.98
2022-05-10 05:22:00,,0822.3,5.00,0.00,29.9,29.1,00.0,38.8,31.6,12.7,0000.0,0016.99,0005.18,0001.99
2022-05-10 05:23:00,,0822.3,5.00,0.00,29.9,29.1,00.0,38.8,31.7,12.5,0000.0,0016.67,0005.20,0002.00
2022-05-10 05:24:00,,0822.2,5.00,0.00,29.9,29.1,00.0,38.8,31.7,12.5,0000.0,0016.74,0005.21,0002.00
2022-05-10 05:25:00,,0822.3,5.00,0.00,29.9,29.1,00.0,38.8,31.7,12.6,0000.0,0017.23,0005.28,0001.99
2022-05-10 05:26:00,,0822.3,5.00,0.00,29.9,29.1,00.0,38.8,31.7,12.6,0000.0,0017.11,0005.23,0001.98
2022-05-10 05:27:00,,0822.3,5.00,0.00,29.9,29.1,00.0,38.8,31.7,12.6,0000.0,0016.67,0005.13,0001.96
2022-05-10 05:28:00,,0822.3,5.00,0.00,29.9,29.1,00.0,38.8,31.6,12.5,0000.0,0015.52,0005.13,0001.95
2022-05-10 05:29:00,,0822.4,5.00,0.00,29.9,29.1,00.0,38.8,31.7,12.5,0000.0,0014.65,0005.12,0001.96
2022-05-10 05:30:00,,0822.4,5.00,0.00,29.9,29.1,00.0,38.8,31.7,12.6,0000.0,0014.81,0005.19,0002.00
2022-05-10 05:31:00,,0822.4,5.01,0.00,29.9,29.2,00.0,38.8,31.7,12.5,0000.0,0014.79,0005.18,0002.04
2022-05-10 05:32:00,,0822.4,5.01,0.00,29.9,29.1,00.0,38.8,31.6,12.5,0000.0,0015.26,0005.24,0002.06
2022-05-10 05:33:00,,0822.4,5.00,0.00,29.9,29.1,00.0,38.8,31.6,12.6,0000.0,0015.93,0005.25,0002.06
2022-05-10 05:34:00,,0822.4,4.99,0.00,29.9,29.1,00.0,38.8,31.6,12.7,0000.0,0017.72,0005.22,0002.06
2022-05-10 05:35:00,,0822.4,5.01,0.00,29.8,29.0,00.0,38.8,31.5,12.7,0000.0,0018.26,0005.22,0002.04
2022-05-10 05:36:00,,0822.4,5.00,0.00,29.8,28.9,00.0,38.8,31.5,12.8,0000.0,0019.57,0005.23,0002.04
2022-05-10 05:37:00,,0822.4,5.01,0.00,29.8,28.8,00.0,38.8,31.4,12.8,0000.0,0019.31,0005.19,0002.03
2022-05-10 05:38:00,,0822.4,5.00,0.00,29.7,28.8,00.0,38.8,31.4,12.9,0000.0,0019.16,0005.18,0002.06
2022-05-10 05:39:00,,0822.4,5.01,0.00,29.7,28.7,00.0,38.7,31.4,12.9,0000.0,0019.19,0005.23,0002.06
2022-05-10 05:40:00,,0822.5,5.00,0.00,29.7,28.6,00.0,38.7,31.3,13.0,0000.0,0019.45,0005.26,0002.04
2022-05-10 05:41:00,,0822.5,5.00,0.00,29.6,28.6,00.0,38.7,31.3,13.0,0000.0,0019.86,0005.28,0002.00
2022-05-10 05:42:00,,0822.5,4.99,0.00,29.6,28.6,00.0,38.7,31.2,13.0,0000.0,0019.79,0005.20,0001.97
2022-05-10 05:43:00,,0822.5,4.99,0.00,29.6,28.7,00.0,38.7,31.3,13.1,0000.0,0018.73,0005.17,0001.97
2022-05-10 05:44:00,,0822.5,5.00,0.00,29.6,28.7,00.0,38.7,31.2,13.0,0000.0,0018.38,0005.17,0001.97
2022-05-10 05:45:00,,0822.6,5.00,0.00,29.5,28.7,00.0,38.6,31.2,13.0,0000.0,0017.42,0005.26,0001.96
2022-05-10 05:46:00,,0822.5,5.00,0.00,29.5,28.7,00.0,38.6,31.2,13.1,0000.0,0017.51,0005.29,0001.97
2022-05-10 05:47:00,,0822.5,5.00,0.00,29.5,28.7,00.0,38.6,31.2,13.2,0000.0,0016.69,0005.24,0001.97
2022-05-10 05:48:00,,0822.4,5.01,0.00,29.5,28.7,00.0,38.6,31.2,13.1,0000.0,0016.00,0005.27,0001.98
2022-05-10 05:49:00,,0822.4,5.00,0.00,29.5,28.7,00.0,38.6,31.2,12.9,0000.0,0016.40,0005.39,0001.98
2022-05-10 05:50:00,,0822.4,5.00,0.00,29.5,28.6,00.0,38.6,31.2,13.0,0000.0,0017.30,0005.38,0001.97
2022-05-10 05:51:00,,0822.5,5.01,0.00,29.4,28.6,00.0,38.6,31.1,13.0,0000.0,0017.51,0005.41,0002.00
2022-05-10 05:52:00,,0822.5,5.00,0.00,29.4,28.6,00.0,38.5,31.2,13.0,0000.0,0018.14,0005.46,0002.01
2022-05-10 05:53:00,,0822.7,5.01,0.00,29.4,28.6,00.0,38.5,31.2,13.1,0000.0,0018.46,0005.53,0002.02
2022-05-10 05:54:00,,0822.6,5.01,0.00,29.4,28.6,00.0,38.5,31.1,13.0,0000.0,0018.57,0005.50,0002.02
2022-05-10 05:55:00,,0822.6,4.99,0.00,29.4,28.6,00.0,38.5,31.1,13.0,0000.0,0018.93,0005.56,0002.04
2022-05-10 05:56:00,,0822.5,5.00,0.00,29.4,28.6,00.0,38.5,31.1,13.1,0000.0,0018.38,0005.49,0002.04
2022-05-10 05:57:00,,0822.6,5.00,0.00,29.4,28.6,00.0,38.5,31.1,13.0,0000.0,0017.75,0005.45,0002.02
2022-05-10 05:58:00,,0822.6,5.00,0.00,29.4,28.6,00.0,38.5,31.1,13.0,0000.0,0017.50,0005.44,0001.99
2022-05-10 05:59:00,,0822.7,5.01,0.00,29.4,28.6,00.0,38.5,31.1,13.1,0000.0,0017.96,0005.42,0001.98
